Change the Weather History Date:

Saturday, March 8, 2014

  Actual Average Record
Temperature  
Mean Temperature 67 °F -  
Max Temperature 84 °F 66 °F 89 °F (2004)
Min Temperature 50 °F 41 °F 33 °F (1999)
Cooling Degree Days 2    
Growing Degree Days 17 (Base 50)    
Moisture  
Dew Point 37 °F    
Average Humidity 41    
Maximum Humidity 80    
Minimum Humidity 12    
Precipitation  
Precipitation 0.00 in - - ()
Sea Level Pressure  
Sea Level Pressure 30.06 in    
Wind  
Wind Speed 5 mph (NNW)    
Max Wind Speed 16 mph    
Max Gust Speed 25 mph    
Visibility 10 miles    
Events      
Averages and records for this station are not official NWS values.
T = Trace of Precipitation, MM = Missing Value Source: NWS Daily Summary

Daily Weather History Graph

Daily Weather History Graph

Search for Another Location

Airport or City:

Trip Planner

Search our weather history database for the weather conditions in past years. The results will help you decide how hot, cold, wet, or windy it might be!

Date:

Astronomy

Mar. 08, 2014 Rise Set
Actual Time 6:10 AM PST 5:52 PM PST
Civil Twilight 5:45 AM PST 6:17 PM PST
Nautical Twilight 5:16 AM PST 6:46 PM PST
Astronomical Twilight 4:47 AM PST 7:15 PM PST
Moon 11:12 AM PST (3/8) 12:37 AM PST (3/8)
Length of Visible Light 12h 32m
Length of Day
11h 42m
First Quarter, 53% of the Moon is Illuminated
Mar 8
First Quarter
Mar 16
Full
Mar 23
Last Quarter
Mar 30
New
Apr 7
First Quarter

Hourly Weather History & Observations

Time (PST) Temp. Dew Point Humidity Pressure Visibility Wind Dir Wind Speed Gust Speed Precip Events Conditions
12:53 AM 54.0 °F 48.0 °F 80% 29.99 in 7.0 mi Variable 3.5 mph - N/A   Clear
1:53 AM 55.9 °F 46.9 °F 72% 29.97 in 8.0 mi North 9.2 mph - N/A   Clear
2:53 AM 55.0 °F 45.0 °F 69% 29.97 in 8.0 mi Calm Calm - N/A   Clear
3:53 AM 53.1 °F 44.1 °F 71% 29.99 in 9.0 mi NNE 8.1 mph - N/A   Clear
4:53 AM 52.0 °F 44.1 °F 74% 30.00 in 9.0 mi North 9.2 mph - N/A   Clear
5:53 AM 50.0 °F 43.0 °F 77% 30.03 in 8.0 mi North 10.4 mph - N/A   Clear
6:53 AM 57.0 °F 39.9 °F 53% 30.06 in 10.0 mi WSW 9.2 mph - N/A   Clear
7:53 AM 60.1 °F 46.9 °F 62% 30.09 in 10.0 mi Calm Calm - N/A   Clear
8:53 AM 69.1 °F 45.0 °F 42% 30.10 in 10.0 mi NW 4.6 mph - N/A   Clear
9:53 AM 75.0 °F 39.0 °F 27% 30.09 in 10.0 mi WNW 5.8 mph - N/A   Clear
10:53 AM 78.1 °F 32.0 °F 19% 30.09 in 10.0 mi WNW 8.1 mph - N/A   Clear
11:53 AM 81.0 °F 27.0 °F 14% 30.07 in 10.0 mi East 16.1 mph 25.3 mph N/A   Partly Cloudy
12:53 PM 82.0 °F 30.0 °F 15% 30.06 in 10.0 mi North 9.2 mph - N/A   Partly Cloudy
1:53 PM 82.9 °F 26.1 °F 13% 30.05 in 10.0 mi Calm Calm - N/A   Partly Cloudy
2:53 PM 84.0 °F 25.0 °F 12% 30.04 in 10.0 mi Calm Calm - N/A   Partly Cloudy
3:53 PM 84.0 °F 30.9 °F 15% 30.03 in 10.0 mi Variable 3.5 mph - N/A   Scattered Clouds
4:53 PM 80.1 °F 25.0 °F 13% 30.03 in 10.0 mi Variable 4.6 mph - N/A   Mostly Cloudy
5:53 PM 72.0 °F 35.1 °F 26% 30.06 in 10.0 mi NNW 4.6 mph - N/A   Mostly Cloudy
6:53 PM 66.0 °F 37.0 °F 34% 30.08 in 10.0 mi WNW 10.4 mph - N/A   Mostly Cloudy
7:53 PM 64.0 °F 37.9 °F 38% 30.11 in 10.0 mi Calm Calm - N/A   Clear
8:53 PM 64.9 °F 35.1 °F 33% 30.13 in 10.0 mi ENE 3.5 mph - N/A   Clear
9:53 PM 60.1 °F 39.0 °F 46% 30.13 in 9.0 mi Calm Calm - N/A   Clear
10:53 PM 59.0 °F 37.0 °F 44% 30.14 in 9.0 mi SSE 3.5 mph - N/A   Clear
11:53 PM 59.0 °F 33.1 °F 38% 30.15 in 10.0 mi Calm Calm - N/A   Clear